Location: Bois de la Silve
(44.4667°N, 6.7833°E)
Time: 10:12:41
(UTC+00:00)

deb Chang Zheng 4 - Pass Details

Date: 14 July 2020
Orbit: 603 x 626 km, 98.6° (Epoch: 05 August)

Event Time Altitude Azimuth Distance (km) Brightness Sun altitude
Rises 03:22:21 0° 18° (NNE) 2,872 8.1 -6.6°
Reaches altitude 10° 03:24:34 10° 24° (NNE) 1,966 7.3 -6.2°
Maximum altitude 03:28:45 52° 101° (E) 763 4.4 -5.7°
Drops below altitude 10° 03:32:54 10° 178° (S) 1,963 5.8 -5.1°
Sets 03:35:08 0° 183° (S) 2,867 6.6 -4.8°
